Preview of NWS' New Version of Forecast
This preview is not operational and should not be used for support decisions.

Regional Weather Roundup (RWR)

Issued by National Weather Service (NWS)

                            
000
ASUS42 KTBW 170117
RWRFL 
FLORIDA REGIONAL WEATHER ROUNDUP
NATIONAL WEATHER SERVICE TAMPA BAY RUSKIN FL
900 PM EDT TUE JUL 16 2019

NOTE: "FAIR" INDICATES FEW OR NO CLOUDS BELOW 12,000 FEET WITH NO
SIGNIFICANT WEATHER AND/OR OBSTRUCTIONS TO VISIBILITY.

FLZ001>010-012>015-112-114-115-170200-
PANHANDLE FLORIDA
  
CITY           SKY/WX    TMP DP  RH WIND       PRES   REMARKS
PENSACOLA      FAIR      84  76  76 SW7       30.08R                  
PENSACOLA NAS  MOCLDY    82  76  81 CALM      30.08R                  
MILTON NAS     FAIR      83  74  74 S9        30.09R                  
CRESTVIEW      FAIR      86  70  58 S7        30.10R                  
DUKE FIELD     FAIR      85  72  63 SW7       30.09R                  
VALPARAISO     FAIR      85  73  67 SW3       30.08R                  
MARY ESTHER    PTCLDY    85  74  70 CALM      30.08R                  
TRI COUNTY     FAIR      81  78  91 CALM      30.10R                  
PANAMA CITY    FAIR      83  77  82 SW3       30.09R                  
TYNDALL AFB    FAIR      84  76  76 SW3       30.08R                  
APALACHICOLA   FAIR      84  76  76 CALM      30.09R                  

STATION/POSITION SKY/WX   TEMP    WIND        PRES    WAVE   SWELL
                          AIR SEA DIR/SP/G            HT/PER HT/PER
                          (F)     (DEG/KT/KT) (MB)    (FT/S) (FT/S)
30.1N   87.6W              84 87  190/  6/  8 1018.8R   2/ 6   2/ 6
29.2N   88.2W              84 84  130/  4/  4 1018.7
28.8N   86.0W              86 85   70/  6/  6 1018.8R   1/ 6   2/ 6
PANAMA CITY BEAC                  220/  5/  5 1019.2S
TOWER C                    85     190/  5/  6 1019.3R
28.5N   84.5W              85     110/  2/  2 1019.6S   2/ 4   2/ 4

$$
FLZ011-016>038-118-127-128-134-139-239-170200-
NORTH FLORIDA
  
CITY           SKY/WX    TMP DP  RH WIND       PRES   REMARKS
MARIANNA       FAIR      80  77  90 CALM      30.08S                  
TALLAHASSEE    MOCLDY    86  78  77 SW5       30.09R HX  98           
PERRY          FAIR      86  79  78 SW5       30.10R HX 100           
LIVE OAK       CLEAR     84  79  84 CALM      30.09R HX  96           
CROSS CITY     FAIR      83  79  85 SW3       30.09S                  
LAKE CITY      FAIR      81  73  78 SE3       30.10R                  
GAINESVILLE    FAIR      78  75  90 SW3       30.12S                  
WILLISTON      MOCLDY    75  74  96 E5        30.11R                  
PALATKA        FAIR      82  75  78 CALM      30.10S                  
MAYPORT NAS    FAIR      84  76  76 S5        30.08S                  
JACKSONVILLE   FAIR      84  74  71 CALM      30.07S                  
JAX NAS        FAIR      87  72  60 S5        30.09S                  
JAX CECIL      CLEAR     79  75  89 SE3       30.08F                  
FERNANDINA BEA FAIR      85  75  72 CALM      30.08S                  
ST AUGUSTINE   FAIR      84  72  67 S8        30.10S                  
PALM COAST     FAIR      82  73  74 SE6       30.10S                  

STATION/POSITION SKY/WX   TEMP    WIND        PRES    WAVE   SWELL
                          AIR SEA DIR/SP/G            HT/PER HT/PER
                          (F)     (DEG/KT/KT) (MB)    (FT/S) (FT/S)
SHELL POINT      NOT AVBL
KEATON BEACH               87     250/  6/  7 1019.1R
CEDAR KEY                  86      50/  4/  6 1019.4R
FERNANDINA                 89 84  130/  3/  6 1019.3F
30.7N   81.3W                 83                N/A     1/11
MAYPORT                    85 81  180/  4/  5 1019.2R
31.4N   80.9W              84 85  180/  8/  8 1018.3R   1/10   2/10
ST AUGUSTINE               82 81  170/ 10/ 12 1019.3R

$$
FLZ040-043>046-052-053-057-058-063-144-170200-
INTERIOR CENTRAL FLORIDA
  
CITY           SKY/WX    TMP DP  RH WIND       PRES   REMARKS
OCALA          FAIR      82  72  71 CALM      30.12R                  
LEESBURG       FAIR      78  73  84 SW9       30.14S                  
SANFORD        FAIR      84  74  71 SE5       30.11R                  
ORLANDO EXEC   MOCLDY    86  70  58 SE8       30.13R                  
ORLANDO INTL   MOCLDY    85  73  67 SE6       30.13R                  
KISSIMMEE      MOCLDY    85  76  74 S8        30.14R                  
WINTER HAVEN   FAIR      83  73  72 SW10      30.15R                  
LAKELAND       MOCLDY    79  72  78 SW10      30.14R                  
BARTOW         MOCLDY    77  73  88 SW7       30.13R                  
SEBRING        FAIR      82  75  77 W7        30.12R                  
OKEECHOBEE     FAIR      79  75  89 CALM      30.11R                  

$$
FLZ041-047-054-059-064-141-147-170200-
EAST CENTRAL FLORIDA
  
CITY           SKY/WX    TMP DP  RH WIND       PRES   REMARKS
DAYTONA BEACH  FAIR      84  75  74 SE5       30.11R                  
DELAND         FAIR      82  73  74 S6        30.11S                  
NEW SMYRNA BEA CLEAR     84  75  74 S6        30.12R                  
JFK SPACE CTR  CLEAR     83  68  59 SE5       30.11R                  
TITUSVILLE     CLEAR     90  73  58 SE12      30.11S HX  98           
CAPE CANAVERAL CLEAR     82  55  39 SE5       30.11R                  
PATRICK AFB    FAIR      84  81  90 SE8       30.11R HX  99           
MELBOURNE      FAIR      86  76  71 E8        30.11R HX  96           
VERO BEACH     FAIR      83  76  79 SE7       30.11R                  
FT PIERCE      FAIR      84  73  69 E7        30.11R                  

STATION/POSITION SKY/WX   TEMP    WIND        PRES    WAVE   SWELL
                          AIR SEA DIR/SP/G            HT/PER HT/PER
                          (F)     (DEG/KT/KT) (MB)    (FT/S) (FT/S)
28.5N   80.2W              84 84  130/  8/  8 1019.7R   1/10   2/10
28.9N   78.5W              85 86  120/  8/ 10   N/A     2/10   2/10
TRIDENT PIER               83 84  120/  3/  7 1021.2R
28.4N   80.5W                 84                N/A     1/ 2
27.5N   80.2W                 84                N/A     1/11

$$
FLZ050-056-061-142-242-148-248-149-249-151-251-155-255-
160-260-170200-
WEST CENTRAL FLORIDA
  
CITY           SKY/WX    TMP DP  RH WIND       PRES   REMARKS
CRYSTAL RIVER  FAIR      79  75  89 CALM      30.11R                  
INVERNESS      FAIR      84  79  84 NE3       30.12R HX  96           
BROOKSVILLE    FAIR      83  77  82 S9        30.13R HAZE             
CLEARWATER AIR RAIN      82  70  65 E8        30.11R                  
ST PETE CLEARW LGT RAIN  80  72  76 NE12      30.11R                  
TAMPA INTL     TSTM      77  71  82 CALM      30.13R                  
TAMPA EXEC     LGT RAIN  73  72  94 N5        30.14R                  
PLANT CITY     LGT RAIN N/A N/A N/A MISG      30.16R                  
MACDILL AFB    LGT RAIN  77  73  88 NE7       30.10F                  
PETER O KNIGHT MOCLDY    79  73  83 NE8       30.11S                  
ST PETERSBURG  LGT RAIN  83  75  77 NE20      30.08F                  
SARASOTA       FAIR      82  72  71 E9        30.09R                  
VENICE         MOCLDY    77  75  94 N8        30.12R                  

STATION/POSITION SKY/WX   TEMP    WIND        PRES    WAVE   SWELL
                          AIR SEA DIR/SP/G            HT/PER HT/PER
                          (F)     (DEG/KT/KT) (MB)    (FT/S) (FT/S)
27.3N   84.2W                 87                N/A     1/ 4
CLEARWATER BEACH                   10/  5/  6 1019.5R
MIDDLE TAMPA BAY           84      80/ 19/ 23 1020.0R
VENICE                     77 85   30/  5/  6 1019.7R

$$
FLZ066-069-070-075>078-162-262-165-265-170200-
SOUTHWEST FLORIDA AND KEYS
  
CITY           SKY/WX    TMP DP  RH WIND       PRES   REMARKS
PUNTA GORDA    FAIR      76  74  93 NE6       30.12R                  
FT MYERS       FAIR      78  74  87 NE5       30.09R                  
SOUTHWEST INTL MOCLDY    79  77  94 E6        30.10R                  
NAPLES           N/A     32  32 100 CALM      30.09                   
MARCO ISLAND   LGT RAIN  79  76  90 MISG      30.10S                  
IMMOKALEE      CLOUDY    81  77  89 CALM      30.08S                  
MARATHON       FAIR      85  74  69 E10       30.08R                  
KEY WEST NAS   FAIR      86  75  69 E9        30.08R HX  95           
KEY WEST INTL  FAIR      85  76  74 E12       30.08R                  

STATION/POSITION SKY/WX   TEMP    WIND        PRES    WAVE   SWELL
                          AIR SEA DIR/SP/G            HT/PER HT/PER
                          (F)     (DEG/KT/KT) (MB)    (FT/S) (FT/S)
NAPLES                     82 88              1019.0R
26.0N   85.6W              85 86   80/ 10/ 12 1018.9R   2/ 5   2/ 5
DRY TORTUGAS               85      60/  8/ 10 1018.4R
SAND KEY                   85     100/ 12/ 14 1017.3R
SOMBRERO KEY               85      90/ 13/ 16 1018.7
LONG KEY                   85                 1017.9

$$
FLZ067-068-071>074-168-172>174-170200-
SOUTHEAST FLORIDA 
  
CITY           SKY/WX    TMP DP  RH WIND       PRES   REMARKS
W PALM BEACH   FAIR      84  75  74 SE10      30.11R                  
BOCA RATON     CLEAR     84  75  74 SE5       30.11R                  
FT LAUDER-EXEC FAIR      85  74  69 E7        30.10R                  
FT LAUDERDALE  FAIR      85  74  69 SE7       30.09S                  
POMPANO BEACH  FAIR      86  73  65 E6        30.10R                  
PEMBROKE PINES FAIR      85  74  69 E8        30.11R                  
OPA LOCKA      FAIR      84  73  69 SE6       30.11R                  
MIAMI          FAIR      86  71  60 E8        30.10R                  
WEST KENDALL   FAIR      84  75  74 E8        30.09R                  
HOMESTEAD      FAIR      83  76  79 E3        30.08S                  

STATION/POSITION SKY/WX   TEMP    WIND        PRES    WAVE   SWELL
                          AIR SEA DIR/SP/G            HT/PER HT/PER
                          (F)     (DEG/KT/KT) (MB)    (FT/S) (FT/S)
PORT EVERGLADES            86      90/  3/  6 1019.3R
VIRGINIA KEY                      100/  5/  6 1018.7S
LAKE WORTH                 84 86  140/  7/  8 1020.6R
FOWEY ROCKS                84 86   80/  7/  8 1019.3R
SETTLEMENT POINT           83     140